Location: Dehesa de la Cepeda
(40.6574°N, 4.3013°W)
Time: 18:48:37
(UTC+00:00)

Transit 2A Rocket - Pass Details

Date: 10 August 2021
Orbit: 586 x 917 km, 66.7° (Epoch: 27 September)

Event Time Altitude Azimuth Distance (km) Brightness Sun altitude
Rises 19:30:28 0° 340° (NNW) 3,291 9.0 -2.4°
Reaches altitude 10° 19:33:23 10° 356° (N) 2,417 8.0 -2.9°
Maximum altitude 19:37:42 22° 46° (NE) 1,779 6.7 -3.7°
Drops below altitude 10° 19:42:13 10° 96° (E) 2,548 7.1 -4.4°
Enters shadow 19:43:46 - 105° (ESE) 3,004 7.4 -4.7°
Sets 19:45:22 0° 111° (ESE) 3,517 - -5.0°
